Regional Weather Roundup
Issued by NWS

Home | Current Version | Previous Version | Graphics & Text | Print | Product List | Glossary On
Versions: 1 2 3 4 5 6 7 8 9 10 11 12 13 14 15 16 17 18 19 20 21 22 23 24 25 26 27 28 29 30 31 32 33 34 35 36 37 38 39 40 41 42 43 44 45 46 47 48 49 50
982
ASUS45 KSLC 182110
RWRUT

UTAH REGIONAL WEATHER ROUNDUP
NATIONAL WEATHER SERVICE SALT LAKE CITY UT
300 PM MDT FRI AUG 18 2017

UTZ001>011-023>025-182200-

NORTHERN UTAH

CITY           SKY/WX    TMP DP  RH WIND       PRES   REMARKS
BRIGHAM CITY   SUNNY     87  26  11 S8        30.14F
HILL AFB       SUNNY     85  38  19 W9        30.17F
LOGAN          SUNNY     89  34  14 SW9G18    30.13F
OGDEN          SUNNY     87  37  17 W8        30.13F
SALT LAKE CITY MOSUNNY   91  39  16 NW13      30.12F
TOOELE VALLEY  SUNNY     86  45  23 N10       30.13F
WENDOVER       SUNNY     90  36  14 E10       30.12F
HEBER CITY     SUNNY     90  32  12 SW13G18   30.19S
WEST JORDAN    SUNNY     87  53  31 N12G17    30.15F

$$

UTZ011>015-024>027-182200-

CENTRAL/NORTHEAST UTAH

CITY           SKY/WX    TMP DP  RH WIND       PRES   REMARKS
PROVO AIRPORT  SUNNY     91  39  16 VRB7      30.12F
MOAB/CANYONLAN SUNNY     95  28   9 W9G18     30.10F
DELTA          SUNNY     91  30  11 SW9       30.14F
PRICE          MOSUNNY   85  32  15 VRB3      30.21F
ROOSEVELT      SUNNY     90  34  13 SE7       30.18F
VERNAL         SUNNY     88  34  14 W5G16     30.18F

$$

UTZ013>016-019>022-027-182200-

SOUTHERN UTAH

CITY           SKY/WX    TMP DP  RH WIND       PRES   REMARKS
BRYCE CANYON   PTSUNNY   77  33  20 SE5       30.39S
CEDAR CITY     PTSUNNY   89  35  14 NW7       30.21F
MILFORD        MOSUNNY   95  32  11 MISG      30.14F HX  90
ST GEORGE      CLEAR     98  40  13 SW7       30.00F HX  93
HANKSVILLE     SUNNY     95  30  10 CALM      30.12F
BLANDING       MOSUNNY   85  29  13 CALM      30.31S

$$

REGIONAL REPORTS     COLORADO/ARIZONA

CITY           SKY/WX    TMP DP  RH WIND       PRES   REMARKS
CRAIG, CO      SUNNY     86  27  11 W14G20    30.24F
GRAND JUNCTION SUNNY     91  33  12 NW14      30.13F
RIFLE, CO      SUNNY     90  24   9 W16G23    30.17F
MONTROSE, CO   SUNNY     87  36  16 NW8       30.22F
CORTEZ, CO     SUNNY     89  27  10 SW12      30.23F
COLORADO CITY    N/A     93  36  13 SE6       30.19F
PAGE, AZ       SUNNY     97  34  11 N9        30.09F HX  91
GRAND CANYON   MOSUNNY   81  35  19 S3        30.31F
KINGMAN, AZ    SUNNY     97  38  13 VRB6G16   30.07F HX  92
FLAGSTAFF, AZ  SUNNY     79  37  22 S10G18    30.34F

$$

REGIONAL REPORTS    NEVADA/IDAHO/WYOMING

CITY           SKY/WX    TMP DP  RH WIND       PRES   REMARKS
LAS VEGAS, NV  MOSUNNY  102  38  11 E6        29.96F HX  96
ELY, NY        MOSUNNY   88  28  11 SW12      30.24F
ELKO, NV       SUNNY     89  22   8 S8G20     30.18F
POCATELLO, ID  SUNNY     87  38  17 W18       30.14F
BURLEY, ID     SUNNY     83  38  20 W13G23    30.12F
FORT BRIDGER,    N/A     84  27  12 SW17G25   30.31F
EVANSTON, WY   MOSUNNY   82  32  16 W22G28    30.31S
ROCK SPRINGS,  SUNNY     81  28  14 W13G21    30.26F
KEMMERER, WY     N/A     79  28  15 W18G29    30.31S

$$




USA.gov is the U.S. government's official web portal to all federal, state and local government web resources and services.